Theta_e
317 317 317 317 317 316 316 315 316 316 316 316 316 316 316 316 316 322 331 331 335 339 339 347 347 347 346 349 345 347 355 347 344 344 344 342 343 344 342 344 344 344 343 341 341
316 316 317 317 317 316 316 316 315 316 316 317 317 317 317 316 319 327 328 332 333 331 334 347 345 347 347 348 346 353 351 346 345 344 343 343 345 345 346 345 344 344 342 343 342
316 315 316 316 316 317 316 316 315 316 316 318 319 318 316 316 333 329 336 333 332 331 333 338 344 345 348 347 349 350 348 345 345 343 342 343 344 345 346 346 343 342 342 341 341
317 317 316 315 315 316 316 316 315 315 316 319 320 319 316 320 335 338 337 334 331 331 335 339 343 346 352 352 348 353 347 346 347 346 343 344 345 345 345 343 341 340 340 341 342
316 316 316 315 314 315 316 316 315 315 316 319 320 318 317 330 325 327 335 332 329 330 335 337 340 347 350 350 348 350 348 347 346 345 345 344 345 345 344 342 341 340 341 340 343
314 314 314 316 315 315 315 316 315 316 317 318 318 317 326 323 323 330 331 330 332 333 336 337 338 346 350 350 346 348 348 348 348 347 345 344 344 343 343 341 342 342 341 340 344
311 311 311 314 316 315 315 315 315 316 318 317 316 317 325 324 327 333 334 336 337 334 334 340 342 342 345 348 347 349 352 349 350 348 344 345 346 345 342 342 342 342 343 341 345
311 312 311 311 315 314 315 315 316 316 320 316 313 323 326 322 324 325 327 335 339 340 338 342 341 339 341 343 345 348 348 355 353 346 346 350 350 345 342 342 342 343 343 344 343
313 312 311 310 313 314 314 315 316 318 322 318 321 325 324 325 324 326 327 329 336 340 339 342 342 344 343 350 352 352 358 355 355 348 349 354 350 344 342 342 343 342 344 344 344
313 312 311 310 312 313 314 315 320 324 325 325 327 327 328 327 325 325 326 326 332 336 337 342 342 345 347 345 360 360 360 356 356 351 353 355 350 344 342 343 344 343 344 344 346
312 312 311 310 311 312 312 314 326 327 326 326 323 328 325 326 327 324 325 326 331 335 337 341 345 347 345 344 348 350 353 354 354 352 354 354 349 346 343 344 344 343 344 344 346
312 311 311 310 312 313 313 318 325 327 326 327 326 326 324 324 324 324 326 328 333 334 336 337 341 340 346 347 347 348 350 349 345 352 350 354 352 349 346 345 345 345 345 346 345
310 310 311 310 311 316 319 322 323 326 326 328 328 328 323 324 324 322 324 329 332 334 336 339 341 341 343 346 348 346 345 346 351 351 347 353 354 352 350 349 346 345 345 345 345
309 310 312 311 315 315 318 323 326 325 327 329 326 326 324 323 326 328 330 331 334 334 335 336 340 343 343 345 340 343 346 347 349 355 357 348 359 354 349 350 349 346 346 345 345
307 309 312 312 312 316 320 321 324 325 332 323 325 325 323 322 325 324 327 330 333 334 335 336 338 342 341 342 341 342 344 347 348 356 357 353 349 353 349 351 349 347 347 347 346
307 309 311 313 314 317 319 322 323 328 329 324 325 323 321 322 323 324 327 328 332 334 334 334 337 340 338 340 342 343 342 346 347 352 361 349 350 352 352 349 348 346 345 347 346
307 310 310 310 315 319 317 323 327 330 324 324 323 323 321 321 322 323 326 331 332 333 334 334 335 337 337 338 340 341 345 354 354 352 351 343 346 346 346 347 346 345 344 342 345
310 312 312 312 311 313 318 326 331 326 325 324 324 322 321 322 322 324 328 330 329 330 332 334 336 337 337 338 345 346 344 347 363 363 349 343 342 343 342 342 343 342 342 341 341
311 314 317 317 313 314 320 325 327 327 324 324 325 322 321 322 324 325 328 330 330 330 331 334 338 336 336 336 338 342 348 344 353 350 354 344 339 338 339 340 339 338 338 341 339
310 315 319 320 319 317 323 325 323 324 325 325 324 323 321 322 324 325 329 329 330 330 329 332 338 336 335 334 339 339 342 352 354 352 353 342 341 340 340 340 338 338 335 335 335
314 323 323 319 319 319 322 323 323 322 323 327 326 327 323 323 324 324 329 329 329 330 329 329 330 335 334 335 337 339 342 343 348 345 357 347 346 341 343 340 338 338 335 334 337
316 327 323 322 323 322 321 321 318 320 321 325 327 328 327 324 324 325 329 330 329 328 328 327 327 332 334 335 335 338 340 344 348 344 340 346 340 340 339 338 340 339 338 339 340
317 323 325 323 324 324 323 322 321 320 321 324 326 328 327 325 325 327 327 330 329 328 327 327 327 329 336 335 335 340 342 342 343 340 341 339 339 334 336 341 344 344 344 346 346
317 329 332 330 327 324 323 323 322 321 321 323 325 327 327 328 325 327 327 329 329 329 340 330 326 333 338 334 336 342 342 338 337 341 345 339 338 335 335 341 344 345 348 357 362
318 329 327 331 330 329 325 323 323 322 323 325 327 327 326 329 329 328 328 328 327 335 337 326 326 335 341 341 340 341 342 340 338 340 340 337 337 336 339 343 347 359 363 364 363
320 327 330 331 329 330 332 324 325 325 326 327 330 326 327 329 337 328 328 329 327 329 329 325 330 343 341 340 341 339 339 339 339 338 340 338 340 343 346 348 360 362 359 360 359
316 319 327 328 331 333 333 327 326 327 327 328 329 330 330 339 337 335 330 327 327 328 327 325 326 340 340 340 341 339 334 339 339 340 339 344 344 344 354 362 361 358 357 359 359
Wind_Speed
24 25 25 26 27 27 28 29 29 29 30 30 27 25 25 26 23 10 5 8 4 5 12 42 32 21 9 10 9 3 3 6 12 10 9 15 15 7 17 25 14 12 19 13 26
25 26 26 27 27 28 29 29 29 30 31 28 25 24 23 23 18 11 20 14 11 8 3 24 12 19 5 2 1 5 3 10 10 16 13 15 15 16 23 20 21 21 16 17 23
26 27 27 28 28 28 29 30 30 30 32 28 24 21 20 18 4 8 13 21 14 10 10 1 16 4 8 4 4 7 3 13 12 18 13 9 16 19 20 17 16 19 15 13 16
27 28 28 28 28 29 30 30 30 30 31 28 22 18 18 5 2 4 9 17 12 9 7 3 4 8 5 9 5 4 15 10 13 11 13 9 16 13 17 18 18 15 12 10 11
27 28 29 28 28 29 30 30 30 30 29 25 20 15 6 3 11 13 7 13 11 10 9 7 13 9 14 10 6 5 8 15 13 8 12 15 18 21 19 19 18 15 13 10 9
28 28 28 28 28 29 31 31 30 29 27 21 17 11 2 6 12 15 9 13 13 12 12 13 7 28 17 13 6 5 5 12 11 13 11 17 16 18 18 16 16 14 11 9 17
26 27 27 28 29 29 31 32 30 28 25 17 13 5 5 14 6 7 10 13 14 16 15 8 24 15 7 12 10 18 9 0 9 8 3 10 14 15 17 16 13 12 11 8 18
24 27 29 29 29 30 32 33 29 29 20 12 9 1 8 13 12 23 16 16 17 20 18 16 28 10 4 3 8 8 6 6 5 7 2 10 7 12 16 14 10 9 12 13 9
27 29 31 30 30 30 33 34 31 22 11 8 5 4 9 10 12 18 19 14 19 23 12 8 9 5 6 6 6 11 7 8 5 5 5 3 9 9 13 11 9 9 11 11 8
28 30 32 31 29 30 35 36 18 9 6 4 10 5 9 6 12 17 19 22 10 9 7 6 5 4 4 6 8 8 9 11 6 8 5 7 10 12 10 11 8 9 9 9 12
29 32 33 33 28 28 38 16 2 2 5 8 7 6 11 19 18 17 20 19 11 7 7 7 4 6 10 12 20 10 17 14 16 11 12 9 13 13 13 12 10 9 9 9 12
30 33 34 32 27 25 21 4 9 11 8 12 21 20 31 18 12 11 23 11 9 8 9 6 8 10 13 15 20 18 14 5 9 17 8 13 12 10 11 14 13 12 11 13 12
31 32 34 33 26 14 8 18 18 19 5 11 16 14 11 11 16 11 14 12 10 9 10 7 8 12 9 14 12 15 7 5 2 12 7 17 6 9 7 10 13 13 14 9 16
30 29 30 36 10 17 12 26 12 13 4 7 8 9 11 10 6 6 12 9 7 11 11 8 18 11 17 18 11 12 15 19 17 13 4 9 3 4 8 7 14 11 16 13 12
29 29 27 27 21 8 13 25 18 13 4 8 16 8 8 10 6 9 17 8 11 12 7 14 9 9 6 5 7 5 28 28 19 14 0 8 6 6 9 7 8 9 17 15 15
31 28 30 10 12 18 23 22 18 1 8 6 13 16 16 10 12 7 11 12 10 14 11 11 10 8 6 2 16 10 13 19 16 10 2 10 3 5 9 10 8 7 8 15 16
33 30 31 16 8 6 21 8 1 5 6 9 21 18 20 14 16 16 13 15 12 7 11 10 11 7 5 9 8 12 8 4 6 4 5 5 3 8 12 9 10 10 9 8 16
38 33 25 24 22 13 11 2 7 9 14 3 20 17 17 15 17 17 12 12 12 12 5 6 6 6 6 2 5 7 6 5 5 3 7 8 0 2 9 11 14 11 9 8 6
38 17 15 17 16 12 3 7 6 7 16 7 19 14 12 12 9 14 12 15 17 17 10 7 7 5 9 8 9 3 7 14 9 7 5 5 3 7 9 9 8 10 8 14 9
19 11 13 19 15 13 4 8 9 17 19 19 16 8 15 16 15 13 12 12 15 18 9 8 5 8 8 8 7 14 16 7 3 3 4 7 6 6 7 7 10 10 10 11 9
4 4 12 26 24 4 9 8 14 27 21 11 15 19 11 15 17 15 12 8 16 16 12 9 2 9 9 7 11 3 8 4 7 3 5 4 3 9 8 9 10 12 11 11 10
7 4 18 29 7 5 10 10 14 26 22 24 22 25 20 21 16 20 13 17 18 15 15 10 4 5 13 9 9 6 4 8 5 6 3 4 4 9 9 7 15 10 8 10 10
5 4 8 16 8 10 13 21 24 22 27 22 17 26 17 19 13 18 18 17 15 20 11 9 4 4 5 3 5 3 6 6 8 6 8 6 4 8 11 13 12 11 9 7 7
4 3 4 3 6 15 16 19 23 23 28 29 30 28 14 7 14 14 19 16 18 18 15 9 7 6 6 10 8 7 6 7 8 5 2 5 8 8 9 12 9 10 12 17 17
4 1 4 2 7 14 17 19 16 24 27 27 28 21 11 5 6 13 16 10 12 18 9 8 7 2 5 3 2 10 16 13 8 6 6 13 13 9 11 11 11 17 19 18 16
3 3 2 6 7 11 17 8 30 31 23 22 10 17 10 6 4 19 11 7 11 5 8 6 3 3 4 5 4 9 19 15 14 10 5 9 8 11 11 16 17 16 18 17 15
10 11 2 6 4 10 15 23 27 33 27 12 8 5 6 7 8 10 3 8 10 8 5 6 6 3 5 7 12 11 10 18 9 8 8 16 13 13 13 18 15 14 15 15 14
Wind_Direction
356 355 354 353 350 348 346 343 343 341 340 336 332 329 331 330 325 318 249 248 247 239 122 134 139 164 189 144 184 143 305 97 125 129 106 97 105 97 107 133 142 110 119 135 125
351 350 348 347 346 345 343 341 341 339 338 335 331 328 331 333 328 265 250 251 254 259 201 141 161 190 98 52 235 244 251 113 101 110 110 133 137 112 93 95 100 107 120 147 138
347 345 344 342 342 341 339 338 338 337 337 333 327 326 330 335 297 240 263 240 243 249 245 216 171 3 41 296 120 279 104 79 109 116 128 149 129 114 114 114 119 130 144 148 170
343 342 340 338 337 337 336 335 335 335 335 331 325 325 327 334 221 29 221 201 228 243 229 284 232 81 138 286 193 331 117 131 94 103 149 123 121 112 118 122 126 136 151 164 179
339 338 337 334 333 333 332 331 331 330 332 328 325 326 342 238 249 284 201 204 216 232 231 213 235 154 155 214 334 172 107 105 109 148 94 89 104 111 116 125 134 146 159 184 147
336 336 335 331 330 330 328 326 327 327 329 324 322 323 305 255 256 247 199 208 228 229 261 243 257 113 98 266 301 319 153 111 108 61 100 114 116 114 127 131 138 154 174 189 139
335 336 335 331 329 327 324 322 322 322 321 316 319 333 262 238 255 205 189 220 235 240 260 6 67 68 116 149 257 63 32 75 108 91 51 112 116 128 133 132 155 169 172 146 132
345 342 337 331 327 325 319 316 315 317 308 302 308 261 253 256 266 283 275 227 237 248 246 85 89 91 47 88 16 58 52 332 150 104 322 94 132 138 136 139 166 167 136 112 116
341 338 336 330 326 324 316 313 313 306 289 287 311 204 267 295 229 234 256 261 239 239 251 91 63 89 25 75 54 38 344 281 149 126 129 115 142 143 140 147 165 126 115 131 120
337 335 333 329 325 323 316 318 310 289 275 265 265 301 266 240 226 217 235 256 259 219 236 73 49 87 47 55 120 184 270 273 255 169 179 144 139 151 149 150 146 135 129 137 139
336 335 332 327 322 322 325 341 310 49 243 224 213 257 287 226 221 218 218 240 254 252 237 160 120 201 191 160 161 218 194 227 192 175 154 159 151 158 162 154 150 152 151 160 157
334 333 331 326 318 313 312 252 267 326 299 246 249 256 266 269 285 221 206 208 230 243 243 290 207 240 161 194 195 226 244 340 123 178 173 165 155 159 166 164 163 163 172 168 170
335 333 331 325 317 320 294 265 290 310 288 284 234 252 239 243 253 210 183 210 216 237 241 196 237 254 214 200 200 229 184 174 98 1 114 133 134 151 187 158 170 172 180 180 174
334 333 331 330 311 331 288 329 319 329 292 263 199 245 241 250 285 265 201 186 230 229 239 228 230 232 248 167 182 67 102 92 33 46 322 333 170 162 172 198 179 181 183 186 173
332 330 325 333 293 297 303 332 337 310 284 206 201 187 219 200 149 252 244 210 215 233 205 245 232 235 265 119 83 135 92 90 100 133 234 316 108 222 166 208 196 209 185 184 189
330 327 323 339 304 278 325 309 305 242 243 265 157 180 183 217 227 255 213 204 219 238 253 243 266 201 224 109 118 148 107 106 96 109 309 264 133 211 182 191 189 209 206 192 189
326 318 309 284 239 219 330 313 205 236 266 282 159 172 184 200 217 225 218 191 213 207 251 262 257 201 171 106 50 82 58 19 49 10 241 188 79 218 198 184 169 192 211 176 178
324 316 290 258 264 290 314 286 231 233 249 310 158 177 186 198 214 223 198 185 224 232 231 217 267 217 126 118 128 50 100 90 41 0 300 25 77 197 145 149 164 178 184 115 123
326 323 271 265 241 223 265 223 211 234 226 261 156 174 191 210 188 216 207 190 204 224 217 201 242 168 153 131 136 204 66 131 140 240 274 216 110 72 128 142 148 140 108 145 101
324 299 257 232 202 186 229 240 245 269 302 318 274 198 192 209 203 212 184 187 200 223 210 254 176 231 193 171 113 154 147 81 18 205 315 146 145 181 171 161 165 138 133 135 130
298 269 263 187 157 195 226 236 253 264 281 289 280 293 216 210 207 222 189 195 211 213 227 243 219 284 154 187 168 167 144 160 123 143 238 157 202 190 177 173 156 137 140 144 139
309 267 153 168 171 203 236 233 257 264 272 273 275 277 276 209 214 211 210 192 191 221 216 224 230 223 181 194 202 197 149 136 147 173 154 161 250 145 157 132 90 113 126 130 136
305 284 297 182 207 227 243 250 247 253 258 265 265 273 272 195 210 196 227 194 186 207 206 211 254 267 252 149 221 181 77 87 95 50 165 147 214 105 84 83 98 101 88 100 96
285 279 334 338 287 253 243 240 249 247 251 256 265 269 276 274 201 199 212 203 202 200 216 148 235 176 202 193 177 126 160 160 126 126 193 196 131 112 115 109 96 91 80 81 71
240 203 185 283 281 270 287 276 265 251 247 253 261 238 249 274 256 180 211 212 182 188 196 151 220 9 303 242 340 169 131 109 108 154 127 162 139 157 141 118 108 95 86 82 75
286 344 324 297 278 285 271 225 234 256 249 257 247 230 245 266 311 183 185 185 172 125 155 174 192 75 312 273 332 281 150 141 142 203 161 142 117 126 114 101 97 100 98 94 89
345 331 230 255 305 289 280 238 238 251 260 236 238 273 264 1 334 308 202 168 141 129 144 148 121 84 262 324 323 225 176 168 185 181 158 128 145 123 106 104 106 101 97 99 95